Ortonville, MN

2:16 PM CST on December 08, 2016 (GMT -0600)
Ortonville Municipal-Martinson

Weather History for KVVV - March, 2014

Change the Weather History Date:

Monday, March 31, 2014

  Actual Average (KAQP) Record (KAQP)
Temperature  
Mean Temperature 34 °F -  
Max Temperature 51 °F 43 °F 75 °F (2003)
Min Temperature 15 °F 25 °F 19 °F (2014)
Degree Days  
Heating Degree Days 31    
Moisture  
Dew Point 30 °F    
Average Humidity 82    
Maximum Humidity 93    
Minimum Humidity 62    
Precipitation  
Precipitation 0.16 in - - ()
Sea Level Pressure  
Sea Level Pressure 29.51 in    
Wind  
Wind Speed 11 mph (North)    
Max Wind Speed 32 mph    
Max Gust Speed 41 mph    
Visibility 6 miles    
Events Rain , Snow , Thunderstorm    
Averages and records for this station are not official NWS values.
T = Trace of Precipitation, MM = Missing Value Source: NWS Daily Summary

Daily Weather History Graph

Daily Weather History Graph

Search for Another Location

Airport or City:

Trip Planner

Search our weather history database for the weather conditions in past years. The results will help you decide how hot, cold, wet, or windy it might be!

Date:

Astronomy

Mar. 31, 2014 Rise Set
Actual Time 7:07 AM CDT 7:52 PM CDT
Civil Twilight 6:38 AM CDT 8:22 PM CDT
Nautical Twilight 6:02 AM CDT 8:57 PM CDT
Astronomical Twilight 5:25 AM CDT 9:34 PM CDT
Moon 7:29 AM CDT (3/31) 9:16 PM CDT (3/31)
Length of Visible Light 13h 44m
Length of Day
12h 44m
New Moon, 1% of the Moon is Illuminated
Mar 31
New Moon
Apr 7
First Quarter
Apr 15
Full
Apr 22
Last Quarter
Apr 29
New

Hourly Weather History & Observations

Time (CDT) Temp. Windchill Dew Point Humidity Pressure Visibility Wind Dir Wind Speed Gust Speed Precip Events Conditions
12:14 AM 39.2 °F 35.9 °F 32.0 °F 75% 29.70 in 7.0 mi North 4.6 mph - N/A   Clear
12:34 AM 39.2 °F 33.6 °F 33.8 °F 81% 29.69 in 7.0 mi North 8.1 mph - N/A   Clear
12:53 AM 39.2 °F 34.2 °F 33.8 °F 81% 29.67 in 7.0 mi North 6.9 mph - N/A   Clear
1:14 AM 39.2 °F 35.0 °F 33.8 °F 81% 29.67 in 7.0 mi North 5.8 mph - N/A   Clear
1:34 AM 39.2 °F 33.6 °F 33.8 °F 81% 29.65 in 7.0 mi NNE 8.1 mph - N/A   Clear
1:53 AM 39.2 °F 34.2 °F 33.8 °F 81% 29.65 in 7.0 mi North 6.9 mph - N/A   Clear
2:14 AM 37.4 °F 31.4 °F 33.8 °F 87% 29.64 in 7.0 mi North 8.1 mph - N/A   Clear
2:34 AM 37.4 °F 30.8 °F 33.8 °F 87% 29.62 in 5.0 mi North 9.2 mph - N/A   Clear
2:53 AM 37.4 °F 32.8 °F 32.0 °F 81% 29.63 in 5.0 mi WNW 5.8 mph - N/A   Haze
3:14 AM 37.4 °F 30.8 °F 32.0 °F 81% 29.62 in 5.0 mi North 9.2 mph - N/A   Haze
3:33 AM 35.6 °F 28.6 °F 30.2 °F 81% 29.61 in 5.0 mi North 9.2 mph - N/A   Haze
3:54 AM 35.6 °F 28.0 °F 32.0 °F 87% 29.59 in 5.0 mi North 10.4 mph - N/A   Clear
4:14 AM 35.6 °F 28.6 °F 32.0 °F 87% 29.58 in 5.0 mi North 9.2 mph - N/A   Clear
4:33 AM 35.6 °F 27.5 °F 32.0 °F 87% 29.57 in 5.0 mi North 11.5 mph - N/A   Clear
4:54 AM 35.6 °F 28.6 °F 32.0 °F 87% 29.56 in 5.0 mi North 9.2 mph - N/A   Clear
5:14 AM 35.6 °F 29.2 °F 32.0 °F 87% 29.56 in 5.0 mi North 8.1 mph - N/A   Clear
5:33 AM 35.6 °F 28.0 °F 32.0 °F 87% 29.55 in 5.0 mi North 10.4 mph - N/A   Clear
5:54 AM 33.8 °F 27.0 °F 30.2 °F 87% 29.55 in 5.0 mi North 8.1 mph - N/A   Clear
6:14 AM 33.8 °F 25.8 °F 30.2 °F 87% 29.53 in 4.0 mi North 10.4 mph - N/A   Clear
6:33 AM 35.6 °F 28.6 °F 30.2 °F 81% 29.53 in 5.0 mi NNE 9.2 mph - N/A   Clear
6:54 AM 33.8 °F 28.6 °F 30.2 °F 87% 29.54 in 5.0 mi North 5.8 mph - N/A   Clear
7:14 AM 33.8 °F 27.0 °F 30.2 °F 87% 29.54 in 4.0 mi North 8.1 mph - N/A   Clear
7:33 AM 33.8 °F 27.0 °F 30.2 °F 87% 29.53 in 4.0 mi North 8.1 mph - N/A   Clear
7:54 AM 33.8 °F 27.7 °F 30.2 °F 87% 29.52 in 3.0 mi North 6.9 mph - N/A   Clear
8:14 AM 35.6 °F 29.9 °F 30.2 °F 81% 29.51 in 4.0 mi North 6.9 mph - N/A   Clear
8:33 AM 35.6 °F 28.0 °F 33.8 °F 93% 29.49 in 5.0 mi NNE 10.4 mph - N/A   Clear
8:54 AM 37.4 °F 30.8 °F 33.8 °F 87% 29.50 in 7.0 mi NNE 9.2 mph - N/A   Clear
9:13 AM 37.4 °F 29.8 °F 33.8 °F 87% 29.49 in 7.0 mi NE 11.5 mph - N/A   Clear
9:34 AM 41.0 °F 35.2 °F 35.6 °F 81% 29.48 in 10.0 mi NE 9.2 mph - N/A   Clear
9:54 AM 44.6 °F 40.2 °F 37.4 °F 76% 29.49 in 10.0 mi ENE 8.1 mph - N/A   Clear
10:13 AM 46.4 °F 41.1 °F 37.4 °F 71% 29.49 in 10.0 mi East 11.5 mph - N/A   Scattered Clouds
10:34 AM 50.0 °F - 37.4 °F 62% 29.49 in 10.0 mi East 15.0 mph - N/A   Scattered Clouds
10:54 AM 51.8 °F - 39.2 °F 62% 29.48 in 10.0 mi East 13.8 mph - N/A   Scattered Clouds
11:13 AM 51.8 °F - 39.2 °F 62% 29.47 in 10.0 mi East 13.8 mph 18.4 mph N/A   Clear
11:34 AM 48.2 °F - 39.2 °F 71% 29.45 in 10.0 mi ENE 10.4 mph - N/A   Scattered Clouds
11:53 AM 48.2 °F - 39.2 °F 71% 29.45 in 10.0 mi ENE 10.4 mph 16.1 mph N/A   Scattered Clouds
12:14 PM 48.2 °F - 39.2 °F 71% 29.44 in 10.0 mi NE 11.5 mph 17.3 mph N/A   Mostly Cloudy
12:34 PM 48.2 °F - 39.2 °F 71% 29.44 in 10.0 mi NE 12.7 mph 16.1 mph N/A   Overcast
12:53 PM 48.2 °F - 41.0 °F 76% 29.43 in 10.0 mi NNE 12.7 mph - N/A   Overcast
1:14 PM 48.2 °F - 41.0 °F 76% 29.43 in 10.0 mi NNE 10.4 mph - N/A   Overcast
1:34 PM 48.2 °F - 41.0 °F 76% 29.42 in 10.0 mi NNE 10.4 mph - N/A   Overcast
1:54 PM 46.4 °F 40.1 °F 39.2 °F 76% 29.41 in 10.0 mi North 15.0 mph - N/A   Overcast
2:14 PM 46.4 °F 40.1 °F 39.2 °F 76% 29.40 in 10.0 mi North 15.0 mph - N/A   Overcast
2:34 PM 44.6 °F 37.2 °F 37.4 °F 76% 29.38 in 10.0 mi North 17.3 mph - N/A   Overcast
2:54 PM 44.6 °F 36.6 °F 37.4 °F 76% 29.38 in 10.0 mi North 19.6 mph 24.2 mph N/A   Overcast
3:14 PM 42.8 °F 34.5 °F 35.6 °F 76% 29.39 in 7.0 mi NNW 18.4 mph 27.6 mph N/A   Drizzle
3:33 PM 39.2 °F 29.0 °F 35.6 °F 87% 29.39 in 5.0 mi NNW 21.9 mph 28.8 mph N/A   Drizzle
3:54 PM 35.6 °F 23.7 °F 30.2 °F 81% 29.39 in 7.0 mi NNW 24.2 mph 31.1 mph N/A Rain Light Rain
4:14 PM 33.8 °F 21.3 °F 30.2 °F 87% 29.37 in 5.0 mi NNW 24.2 mph 35.7 mph N/A   Drizzle
4:34 PM 30.2 °F 15.2 °F 28.4 °F 93% 29.38 in 10.0 mi NNW 29.9 mph 35.7 mph N/A   Overcast
4:54 PM 30.2 °F 14.7 °F 28.4 °F 93% 29.39 in 10.0 mi NNW 32.2 mph 39.1 mph N/A Thunderstorm Thunderstorm
5:14 PM 30.2 °F 14.9 °F 26.6 °F 86% 29.39 in 10.0 mi NNW 31.1 mph 41.4 mph N/A Thunderstorm Overcast
5:34 PM 30.2 °F 15.7 °F 26.6 °F 86% 29.42 in 3.0 mi NNW 27.6 mph 35.7 mph 0.03 in Thunderstorm Thunderstorm
5:54 PM 28.4 °F 15.1 °F 26.6 °F 93% 29.42 in 4.0 mi NNW 20.7 mph 31.1 mph 0.05 in Thunderstorm Thunderstorm
6:14 PM 28.4 °F 15.4 °F 26.6 °F 93% 29.42 in 3.0 mi NNW 19.6 mph 26.5 mph 0.03 in   Mostly Cloudy
6:34 PM 28.4 °F 15.4 °F 24.8 °F 86% 29.41 in 2.0 mi NNW 19.6 mph 25.3 mph 0.07 in   Mostly Cloudy
6:53 PM 26.6 °F 13.1 °F 23.0 °F 86% 29.39 in 1.2 mi NNW 19.6 mph - 0.09 in   Unknown
7:14 PM 24.8 °F 11.9 °F 21.2 °F 86% 29.44 in 1.8 mi NNW 16.1 mph 23.0 mph 0.01 in   Unknown
7:34 PM 21.2 °F 6.0 °F 19.4 °F 93% 29.46 in 2.0 mi NNW 19.6 mph 27.6 mph 0.01 in Snow Light Snow
7:54 PM 21.2 °F 7.8 °F 17.6 °F 86% 29.49 in 4.0 mi NNW 15.0 mph 26.5 mph 0.01 in Snow Light Snow
8:14 PM 21.2 °F 6.8 °F 17.6 °F 86% 29.49 in 5.0 mi NW 17.3 mph 25.3 mph N/A Snow Light Snow
8:34 PM 19.4 °F 5.0 °F 15.8 °F 86% 29.52 in 2.5 mi NNW 16.1 mph 21.9 mph N/A Snow Light Snow
8:54 PM 19.4 °F 4.5 °F 15.8 °F 86% 29.54 in 1.5 mi NNW 17.3 mph 25.3 mph N/A Snow Light Snow
9:14 PM 19.4 °F 3.6 °F 15.8 °F 86% 29.56 in 1.2 mi NNW 19.6 mph 25.3 mph 0.01 in Snow Light Snow
9:33 PM 17.6 °F 1.7 °F 15.8 °F 93% 29.57 in 1.0 mi NNW 18.4 mph 24.2 mph 0.01 in Snow Light Snow
9:54 PM 17.6 °F 2.7 °F 14.0 °F 86% 29.58 in 1.0 mi NNW 16.1 mph 26.5 mph 0.01 in Snow Light Snow
10:14 PM 17.6 °F 2.2 °F 14.0 °F 86% 29.60 in 1.2 mi NNW 17.3 mph 26.5 mph N/A Snow Light Snow
10:33 PM 17.6 °F 1.3 °F 14.0 °F 86% 29.61 in 1.2 mi NNW 19.6 mph 25.3 mph N/A Snow Light Snow
10:54 PM 17.6 °F 2.2 °F 12.2 °F 79% 29.62 in 1.0 mi NNW 17.3 mph 25.3 mph N/A Snow Light Snow
11:14 PM 17.6 °F 1.3 °F 12.2 °F 79% 29.64 in 1.0 mi NNW 19.6 mph 27.6 mph N/A Snow Light Snow
11:33 PM 17.6 °F 1.7 °F 12.2 °F 79% 29.66 in 1.2 mi NNW 18.4 mph 24.2 mph N/A Snow Light Snow
11:54 PM 15.8 °F 0.3 °F 12.2 °F 86% 29.68 in 1.2 mi NW 16.1 mph 23.0 mph N/A Snow Light Snow